Time,TemperatureF,DewpointF,PressureIn,WindDirection,WindDirectionDegrees,WindSpeedMPH,WindSpeedGustMPH,Humidity,HourlyPrecipIn,Conditions,Clouds,dailyrainin,SoftwareType,DateUTC
2013-01-26 00:00:00,50.8,49.1,30.22,WSW,252,0.0,0.0,94,0.00,,CLR,0.00,VWS V14.01,2013-01-26 05:00:00,
2013-01-26 00:01:00,50.8,49.1,30.22,WSW,252,0.0,0.0,94,0.00,,CLR,0.00,VWS V14.01,2013-01-26 05:01:00,
2013-01-26 00:04:00,50.7,49.0,30.22,WSW,252,0.0,0.0,94,0.00,,CLR,0.00,VWS V14.01,2013-01-26 05:04:00,
2013-01-26 00:09:00,50.5,48.8,30.22,WSW,252,0.0,0.0,94,0.00,,CLR,0.00,VWS V14.01,2013-01-26 05:09:00,
2013-01-26 00:14:00,50.3,48.6,30.22,WSW,252,0.0,0.0,94,0.00,,CLR,0.00,VWS V14.01,2013-01-26 05:14:00,
2013-01-26 00:19:00,50.2,48.5,30.22,WSW,252,0.0,0.0,94,0.00,,CLR,0.00,VWS V14.01,2013-01-26 05:19:00,
2013-01-26 00:24:00,50.0,48.3,30.22,WSW,252,0.0,0.0,94,0.00,,CLR,0.00,VWS V14.01,2013-01-26 05:24:00,
2013-01-26 00:30:00,49.8,48.2,30.22,WSW,252,0.0,0.0,94,0.00,,CLR,0.00,VWS V14.01,2013-01-26 05:30:00,
2013-01-26 00:35:00,49.7,48.3,30.22,WSW,252,0.0,0.0,95,0.00,,CLR,0.00,VWS V14.01,2013-01-26 05:35:00,
2013-01-26 00:40:00,49.7,48.3,30.22,WSW,252,0.0,0.0,95,0.00,,CLR,0.00,VWS V14.01,2013-01-26 05:40:00,
2013-01-26 00:45:00,49.7,48.3,30.22,WSW,252,0.0,0.0,95,0.00,,CLR,0.00,VWS V14.01,2013-01-26 05:45:00,
2013-01-26 00:50:00,49.5,48.1,30.22,WSW,252,0.0,0.0,95,0.00,,CLR,0.00,VWS V14.01,2013-01-26 05:50:00,
2013-01-26 00:55:00,49.4,48.0,30.22,WSW,252,0.0,0.0,95,0.00,,CLR,0.00,VWS V14.01,2013-01-26 05:55:00,
2013-01-26 01:00:00,49.2,48.1,30.22,WSW,252,0.0,0.0,96,0.00,,CLR,0.00,VWS V14.01,2013-01-26 06:00:00,
2013-01-26 01:05:00,49.1,47.7,30.22,WSW,252,0.0,0.0,95,0.00,,CLR,0.00,VWS V14.01,2013-01-26 06:05:00,
2013-01-26 01:10:00,48.8,47.4,30.22,WSW,252,0.0,0.0,95,0.00,,CLR,0.00,VWS V14.01,2013-01-26 06:10:00,
2013-01-26 01:15:00,48.6,47.2,30.22,WSW,252,0.0,0.0,95,0.00,,CLR,0.00,VWS V14.01,2013-01-26 06:15:00,
2013-01-26 01:21:00,48.6,47.5,30.22,WSW,252,0.0,0.0,96,0.00,,CLR,0.00,VWS V14.01,2013-01-26 06:21:00,
2013-01-26 01:26:00,48.5,47.4,30.22,WSW,252,0.0,0.0,96,0.00,,CLR,0.00,VWS V14.01,2013-01-26 06:26:00,
2013-01-26 01:31:00,48.4,47.3,30.22,WSW,252,0.0,0.0,96,0.00,,CLR,0.00,VWS V14.01,2013-01-26 06:31:00,
2013-01-26 01:36:00,48.3,47.2,30.22,WSW,252,0.0,0.0,96,0.00,,CLR,0.00,VWS V14.01,2013-01-26 06:36:00,
2013-01-26 01:41:00,48.4,47.3,30.22,WSW,252,0.0,0.0,96,0.00,,CLR,0.00,VWS V14.01,2013-01-26 06:41:00,
2013-01-26 01:46:00,48.4,47.3,30.21,WSW,252,0.0,0.0,96,0.00,,CLR,0.00,VWS V14.01,2013-01-26 06:46:00,
2013-01-26 01:51:00,48.3,47.2,30.21,WSW,252,0.0,0.0,96,0.00,,CLR,0.00,VWS V14.01,2013-01-26 06:51:00,
2013-01-26 01:56:00,48.2,47.1,30.21,WSW,252,0.0,0.0,96,0.00,,CLR,0.00,VWS V14.01,2013-01-26 06:56:00,
2013-01-26 02:01:00,48.4,47.6,30.21,WSW,252,0.0,0.0,97,0.00,,CLR,0.00,VWS V14.01,2013-01-26 07:01:00,
2013-01-26 02:06:00,48.4,47.6,30.21,WSW,252,0.0,0.0,97,0.00,,CLR,0.00,VWS V14.01,2013-01-26 07:06:00,
2013-01-26 02:12:00,48.2,47.1,30.21,WSW,252,0.0,0.0,96,0.00,,CLR,0.00,VWS V14.01,2013-01-26 07:12:00,
2013-01-26 02:17:00,48.0,46.9,30.21,WSW,252,0.0,0.0,96,0.00,,CLR,0.00,VWS V14.01,2013-01-26 07:17:00,
2013-01-26 02:22:00,47.8,46.7,30.20,WSW,252,0.0,0.0,96,0.00,,CLR,0.00,VWS V14.01,2013-01-26 07:22:00,
2013-01-26 02:27:00,47.5,46.4,30.20,WSW,252,0.0,0.0,96,0.00,,CLR,0.00,VWS V14.01,2013-01-26 07:27:00,
2013-01-26 02:32:00,47.4,46.6,30.20,WSW,252,0.0,0.0,97,0.00,,CLR,0.00,VWS V14.01,2013-01-26 07:32:00,
2013-01-26 02:37:00,47.3,46.5,30.20,WSW,252,0.0,0.0,97,0.00,,CLR,0.00,VWS V14.01,2013-01-26 07:37:00,
2013-01-26 02:42:00,47.2,46.4,30.20,WSW,252,0.0,0.0,97,0.00,,CLR,0.00,VWS V14.01,2013-01-26 07:42:00,
2013-01-26 02:47:00,47.1,46.3,30.20,WSW,252,0.0,0.0,97,0.00,,CLR,0.00,VWS V14.01,2013-01-26 07:47:00,
2013-01-26 02:52:00,47.1,46.3,30.20,WSW,252,0.0,0.0,97,0.00,,CLR,0.00,VWS V14.01,2013-01-26 07:52:00,
2013-01-26 02:57:00,47.1,46.3,30.19,WSW,252,0.0,0.0,97,0.00,,CLR,0.00,VWS V14.01,2013-01-26 07:57:00,
2013-01-26 03:02:00,46.9,46.1,30.19,WSW,252,0.0,0.0,97,0.00,,CLR,0.00,VWS V14.01,2013-01-26 08:02:00,
2013-01-26 03:08:00,46.9,46.1,30.19,WSW,252,0.0,0.0,97,0.00,,CLR,0.00,VWS V14.01,2013-01-26 08:08:00,
2013-01-26 03:13:00,46.8,46.0,30.19,WSW,252,0.0,0.0,97,0.00,,CLR,0.00,VWS V14.01,2013-01-26 08:13:00,
2013-01-26 03:18:00,46.7,45.9,30.19,WSW,252,0.0,0.0,97,0.00,,CLR,0.00,VWS V14.01,2013-01-26 08:18:00,
2013-01-26 03:23:00,46.8,46.0,30.19,WSW,252,0.0,0.0,97,0.00,,CLR,0.00,VWS V14.01,2013-01-26 08:23:00,
2013-01-26 03:28:00,46.7,45.9,30.19,WSW,252,0.0,0.0,97,0.00,,CLR,0.00,VWS V14.01,2013-01-26 08:28:00,
2013-01-26 03:33:00,46.5,45.7,30.19,WSW,252,0.0,0.0,97,0.00,,CLR,0.00,VWS V14.01,2013-01-26 08:33:00,
2013-01-26 03:38:00,46.4,45.6,30.19,WSW,252,0.0,0.0,97,0.00,,CLR,0.00,VWS V14.01,2013-01-26 08:38:00,
2013-01-26 03:43:00,46.2,45.4,30.19,WSW,252,0.0,0.0,97,0.00,,CLR,0.00,VWS V14.01,2013-01-26 08:43:00,
2013-01-26 03:48:00,46.1,45.3,30.19,WSW,252,0.0,0.0,97,0.00,,CLR,0.00,VWS V14.01,2013-01-26 08:48:00,
2013-01-26 03:53:00,46.1,45.3,30.19,WSW,252,0.0,0.0,97,0.00,,CLR,0.00,VWS V14.01,2013-01-26 08:53:00,
2013-01-26 03:58:00,46.0,45.2,30.19,WSW,252,0.0,0.0,97,0.00,,CLR,0.00,VWS V14.01,2013-01-26 08:58:00,
2013-01-26 04:04:00,45.9,45.1,30.19,WSW,252,0.0,0.0,97,0.00,,CLR,0.00,VWS V14.01,2013-01-26 09:04:00,
2013-01-26 04:09:00,45.8,45.0,30.19,WSW,252,0.0,0.0,97,0.00,,CLR,0.00,VWS V14.01,2013-01-26 09:09:00,
2013-01-26 04:14:00,45.9,45.1,30.19,WSW,252,0.0,0.0,97,0.00,,CLR,0.00,VWS V14.01,2013-01-26 09:14:00,
2013-01-26 04:19:00,46.0,45.2,30.19,WSW,252,0.0,0.0,97,0.00,,CLR,0.00,VWS V14.01,2013-01-26 09:19:00,
2013-01-26 04:24:00,46.0,45.2,30.19,WSW,252,0.0,0.0,97,0.00,,CLR,0.00,VWS V14.01,2013-01-26 09:24:00,
2013-01-26 04:29:00,45.9,45.1,30.19,WSW,252,0.0,0.0,97,0.00,,CLR,0.00,VWS V14.01,2013-01-26 09:29:00,
2013-01-26 04:34:00,45.9,45.1,30.19,WSW,252,0.0,0.0,97,0.00,,CLR,0.00,VWS V14.01,2013-01-26 09:34:00,
2013-01-26 04:39:00,45.9,45.1,30.19,WSW,252,0.0,0.0,97,0.00,,CLR,0.00,VWS V14.01,2013-01-26 09:39:00,
2013-01-26 04:44:00,46.0,45.2,30.19,WSW,252,0.0,0.0,97,0.00,,CLR,0.00,VWS V14.01,2013-01-26 09:44:00,
2013-01-26 04:49:00,45.9,45.1,30.19,WSW,252,0.0,0.0,97,0.00,,CLR,0.00,VWS V14.01,2013-01-26 09:49:00,
2013-01-26 04:55:00,45.9,45.1,30.20,WSW,252,0.0,0.0,97,0.00,,CLR,0.00,VWS V14.01,2013-01-26 09:55:00,
2013-01-26 05:00:00,45.8,45.0,30.20,WSW,252,0.0,0.0,97,0.00,,CLR,0.00,VWS V14.01,2013-01-26 10:00:00,
2013-01-26 05:05:00,45.7,44.9,30.20,WSW,252,0.0,0.0,97,0.00,,CLR,0.00,VWS V14.01,2013-01-26 10:05:00,
2013-01-26 05:10:00,45.7,44.9,30.20,WSW,252,0.0,0.0,97,0.00,,CLR,0.00,VWS V14.01,2013-01-26 10:10:00,
2013-01-26 05:15:00,45.6,44.8,30.20,WSW,252,0.0,0.0,97,0.00,,CLR,0.00,VWS V14.01,2013-01-26 10:15:00,
2013-01-26 05:20:00,45.5,44.7,30.20,WSW,252,0.0,0.0,97,0.00,,CLR,0.00,VWS V14.01,2013-01-26 10:20:00,
2013-01-26 05:25:00,45.6,44.8,30.20,WSW,252,0.0,0.0,97,0.00,,CLR,0.00,VWS V14.01,2013-01-26 10:25:00,
2013-01-26 05:30:00,45.5,44.7,30.20,WSW,252,0.0,0.0,97,0.00,,CLR,0.00,VWS V14.01,2013-01-26 10:30:00,
2013-01-26 05:35:00,45.5,44.7,30.20,WSW,252,0.0,0.0,97,0.00,,CLR,0.00,VWS V14.01,2013-01-26 10:35:00,
2013-01-26 05:41:00,45.3,44.5,30.20,WSW,252,0.0,0.0,97,0.00,,CLR,0.00,VWS V14.01,2013-01-26 10:41:00,
2013-01-26 05:46:00,45.2,44.4,30.20,WSW,252,0.0,0.0,97,0.00,,CLR,0.00,VWS V14.01,2013-01-26 10:46:00,
2013-01-26 05:51:00,45.3,44.5,30.20,WSW,252,0.0,0.0,97,0.00,,CLR,0.00,VWS V14.01,2013-01-26 10:51:00,
2013-01-26 05:56:00,45.3,44.5,30.20,WSW,252,0.0,0.0,97,0.00,,CLR,0.00,VWS V14.01,2013-01-26 10:56:00,
2013-01-26 06:01:00,45.5,44.7,30.20,WSW,251,0.0,0.0,97,0.00,,CLR,0.00,VWS V14.01,2013-01-26 11:01:00,
2013-01-26 06:06:00,45.5,44.7,30.21,WSW,252,0.0,0.0,97,0.00,,CLR,0.00,VWS V14.01,2013-01-26 11:06:00,
2013-01-26 06:11:00,45.5,44.7,30.20,WSW,252,0.0,0.0,97,0.00,,CLR,0.00,VWS V14.01,2013-01-26 11:11:00,
2013-01-26 06:16:00,45.4,44.6,30.21,WSW,252,0.0,0.0,97,0.00,,CLR,0.00,VWS V14.01,2013-01-26 11:16:00,
2013-01-26 06:22:00,45.3,44.5,30.21,WSW,252,0.0,0.0,97,0.00,,CLR,0.00,VWS V14.01,2013-01-26 11:22:00,
2013-01-26 06:27:00,45.3,44.5,30.21,WSW,252,0.0,0.0,97,0.00,,CLR,0.00,VWS V14.01,2013-01-26 11:27:00,
2013-01-26 06:32:00,45.2,44.4,30.21,WSW,252,0.0,0.0,97,0.00,,CLR,0.00,VWS V14.01,2013-01-26 11:32:00,
2013-01-26 06:37:00,45.2,44.4,30.21,WSW,252,0.0,0.0,97,0.00,,CLR,0.00,VWS V14.01,2013-01-26 11:37:00,
2013-01-26 06:42:00,45.1,44.3,30.21,WSW,252,0.0,0.0,97,0.00,,CLR,0.00,VWS V14.01,2013-01-26 11:42:00,
2013-01-26 06:47:00,45.2,44.4,30.21,WSW,252,0.0,0.0,97,0.00,,CLR,0.00,VWS V14.01,2013-01-26 11:47:00,
2013-01-26 06:52:00,45.4,44.9,30.21,WSW,252,0.0,0.0,98,0.00,,CLR,0.00,VWS V14.01,2013-01-26 11:52:00,
2013-01-26 06:57:00,45.7,45.2,30.21,WSW,252,0.0,0.0,98,0.00,,CLR,0.00,VWS V14.01,2013-01-26 11:57:00,
2013-01-26 07:03:00,45.9,45.4,30.22,WSW,252,0.0,0.0,98,0.00,,CLR,0.00,VWS V14.01,2013-01-26 12:03:00,
2013-01-26 07:08:00,45.9,45.4,30.22,WSW,252,0.0,0.0,98,0.00,,CLR,0.00,VWS V14.01,2013-01-26 12:08:00,
2013-01-26 07:13:00,45.7,45.2,30.22,WSW,252,0.0,0.0,98,0.00,,CLR,0.00,VWS V14.01,2013-01-26 12:13:00,
2013-01-26 07:18:00,45.5,44.7,30.22,WSW,252,0.0,0.0,97,0.00,,CLR,0.00,VWS V14.01,2013-01-26 12:18:00,
2013-01-26 07:23:00,45.3,44.5,30.22,WSW,252,0.0,0.0,97,0.00,,CLR,0.00,VWS V14.01,2013-01-26 12:23:00,
2013-01-26 07:28:00,45.1,44.3,30.23,WSW,252,0.0,0.0,97,0.00,,CLR,0.00,VWS V14.01,2013-01-26 12:28:00,
2013-01-26 07:33:00,45.1,44.3,30.23,WSW,252,0.0,0.0,97,0.00,,CLR,0.00,VWS V14.01,2013-01-26 12:33:00,
2013-01-26 07:38:00,45.2,44.7,30.23,WSW,252,0.0,0.0,98,0.00,,CLR,0.00,VWS V14.01,2013-01-26 12:38:00,
2013-01-26 07:44:00,45.2,44.7,30.23,WSW,252,0.0,0.0,98,0.00,,CLR,0.00,VWS V14.01,2013-01-26 12:44:00,
2013-01-26 07:49:00,45.2,44.7,30.23,WSW,252,0.0,0.0,98,0.00,,CLR,0.00,VWS V14.01,2013-01-26 12:49:00,
2013-01-26 07:54:00,45.4,44.9,30.24,WSW,252,0.0,0.0,98,0.00,,CLR,0.00,VWS V14.01,2013-01-26 12:54:00,
2013-01-26 07:59:00,45.6,45.1,30.24,WSW,252,0.0,0.0,98,0.00,,CLR,0.00,VWS V14.01,2013-01-26 12:59:00,
2013-01-26 08:04:00,45.9,45.4,30.24,WSW,252,0.0,0.0,98,0.00,,CLR,0.00,VWS V14.01,2013-01-26 13:04:00,
2013-01-26 08:09:00,46.4,45.9,30.24,WSW,252,0.0,0.0,98,0.00,,CLR,0.00,VWS V14.01,2013-01-26 13:09:00,
2013-01-26 08:14:00,47.2,46.7,30.24,WSW,252,0.0,0.0,98,0.00,,CLR,0.00,VWS V14.01,2013-01-26 13:14:00,
2013-01-26 08:20:00,48.0,47.5,30.24,SSW,203,0.0,0.0,98,0.00,,CLR,0.00,VWS V14.01,2013-01-26 13:20:00,
2013-01-26 08:25:00,49.2,48.7,30.24,SSW,198,0.0,1.0,98,0.00,,CLR,0.00,VWS V14.01,2013-01-26 13:25:00,
2013-01-26 08:30:00,50.2,49.7,30.25,SSE,147,0.0,1.0,98,0.00,,CLR,0.00,VWS V14.01,2013-01-26 13:30:00,
2013-01-26 08:35:00,50.7,50.4,30.25,SE,146,0.0,0.0,99,0.00,,CLR,0.00,VWS V14.01,2013-01-26 13:35:00,
2013-01-26 08:40:00,51.4,51.1,30.25,SSE,155,0.0,0.0,99,0.00,,CLR,0.00,VWS V14.01,2013-01-26 13:40:00,
2013-01-26 08:45:00,52.0,51.7,30.25,WNW,283,0.0,0.0,99,0.00,,CLR,0.00,VWS V14.01,2013-01-26 13:45:00,
2013-01-26 08:50:00,52.6,52.3,30.25,ESE,117,0.0,1.0,99,0.00,,,0.00,VWS V14.01,2013-01-26 13:50:00,
2013-01-26 08:55:00,53.1,52.8,30.25,SE,126,1.0,1.0,99,0.00,,,0.00,VWS V14.01,2013-01-26 13:55:00,
2013-01-26 09:00:00,53.4,53.1,30.25,ESE,113,0.0,1.0,99,0.00,,,0.00,VWS V14.01,2013-01-26 14:00:00,
2013-01-26 09:06:00,54.1,53.8,30.26,South,170,0.0,1.0,99,0.00,,,0.00,VWS V14.01,2013-01-26 14:06:00,
2013-01-26 09:11:00,54.8,54.5,30.26,SSW,207,0.0,1.0,99,0.00,,,0.00,VWS V14.01,2013-01-26 14:11:00,
2013-01-26 09:16:00,55.4,55.1,30.26,SSW,212,0.0,1.0,99,0.00,,,0.00,VWS V14.01,2013-01-26 14:16:00,
2013-01-26 09:21:00,56.1,55.5,30.26,SSW,212,0.0,1.0,98,0.00,,,0.00,VWS V14.01,2013-01-26 14:21:00,
2013-01-26 09:26:00,56.9,56.3,30.26,SSW,192,0.0,1.0,98,0.00,,,0.00,VWS V14.01,2013-01-26 14:26:00,
2013-01-26 09:31:00,57.9,56.8,30.26,SSE,149,0.0,1.0,96,0.00,,,0.00,VWS V14.01,2013-01-26 14:31:00,
2013-01-26 09:36:00,58.9,56.9,30.26,SW,218,0.0,0.0,93,0.00,,,0.00,VWS V14.01,2013-01-26 14:36:00,
2013-01-26 09:41:00,59.8,56.9,30.26,West,273,0.0,1.0,90,0.00,,,0.00,VWS V14.01,2013-01-26 14:41:00,
2013-01-26 09:46:00,60.6,57.0,30.26,West,273,0.0,2.0,88,0.00,,CLR,0.00,VWS V14.01,2013-01-26 14:46:00,
2013-01-26 09:51:00,61.6,57.4,30.26,WSW,257,0.0,2.0,86,0.00,,CLR,0.00,VWS V14.01,2013-01-26 14:51:00,
2013-01-26 09:57:00,62.5,57.6,30.26,ENE,75,0.0,2.0,84,0.00,,CLR,0.00,VWS V14.01,2013-01-26 14:57:00,
2013-01-26 10:02:00,63.2,57.6,30.26,ENE,61,0.0,2.0,82,0.00,,CLR,0.00,VWS V14.01,2013-01-26 15:02:00,
2013-01-26 10:07:00,63.7,57.1,30.26,West,271,1.0,4.0,79,0.00,,CLR,0.00,VWS V14.01,2013-01-26 15:07:00,
2013-01-26 10:12:00,64.3,57.7,30.26,ENE,70,0.0,4.0,79,0.00,,CLR,0.00,VWS V14.01,2013-01-26 15:12:00,
2013-01-26 10:17:00,64.9,57.9,30.26,ENE,78,0.0,4.0,78,0.00,,CLR,0.00,VWS V14.01,2013-01-26 15:17:00,
2013-01-26 10:22:00,65.7,57.9,30.26,East,100,0.0,4.0,76,0.00,,CLR,0.00,VWS V14.01,2013-01-26 15:22:00,
2013-01-26 10:27:00,66.5,58.7,30.26,West,277,1.0,4.0,76,0.00,,CLR,0.00,VWS V14.01,2013-01-26 15:27:00,
2013-01-26 10:32:00,67.5,58.5,30.26,WNW,287,0.0,4.0,73,0.00,,CLR,0.00,VWS V14.01,2013-01-26 15:32:00,
2013-01-26 10:37:00,68.4,59.0,30.26,East,81,0.0,2.0,72,0.00,,CLR,0.00,VWS V14.01,2013-01-26 15:37:00,
2013-01-26 10:43:00,69.2,59.0,30.26,South,176,0.0,2.0,70,0.00,,CLR,0.00,VWS V14.01,2013-01-26 15:43:00,
2013-01-26 10:48:00,69.9,59.3,30.26,SE,130,0.0,2.0,69,0.00,,CLR,0.00,VWS V14.01,2013-01-26 15:48:00,
2013-01-26 10:53:00,70.2,59.2,30.25,East,98,0.0,3.0,68,0.00,,CLR,0.00,VWS V14.01,2013-01-26 15:53:00,
2013-01-26 10:58:00,70.2,59.2,30.25,WNW,290,1.0,3.0,68,0.00,,CLR,0.00,VWS V14.01,2013-01-26 15:58:00,
2013-01-26 11:03:00,70.6,58.7,30.25,West,281,0.0,3.0,66,0.00,,CLR,0.00,VWS V14.01,2013-01-26 16:03:00,
2013-01-26 11:08:00,71.1,58.8,30.25,NE,55,0.0,3.0,65,0.00,,CLR,0.00,VWS V14.01,2013-01-26 16:08:00,
2013-01-26 11:13:00,71.4,58.6,30.25,West,264,0.0,3.0,64,0.00,,CLR,0.00,VWS V14.01,2013-01-26 16:13:00,
2013-01-26 11:18:00,71.9,58.2,30.25,ESE,106,0.0,3.0,62,0.00,,CLR,0.00,VWS V14.01,2013-01-26 16:18:00,
2013-01-26 11:23:00,71.8,58.1,30.25,ESE,110,0.0,3.0,62,0.00,,CLR,0.00,VWS V14.01,2013-01-26 16:23:00,
2013-01-26 11:28:00,71.8,57.6,30.25,East,81,0.0,3.0,61,0.00,,CLR,0.00,VWS V14.01,2013-01-26 16:28:00,
2013-01-26 11:34:00,71.9,57.3,30.25,WNW,297,0.0,3.0,60,0.00,,CLR,0.00,VWS V14.01,2013-01-26 16:34:00,
2013-01-26 11:39:00,72.4,57.8,30.24,West,267,0.0,1.0,60,0.00,,CLR,0.00,VWS V14.01,2013-01-26 16:39:00,
2013-01-26 11:44:00,72.6,57.5,30.24,WNW,302,1.0,2.0,59,0.00,,CLR,0.00,VWS V14.01,2013-01-26 16:44:00,
2013-01-26 11:49:00,72.9,57.8,30.24,East,98,0.0,3.0,59,0.00,,CLR,0.00,VWS V14.01,2013-01-26 16:49:00,
2013-01-26 11:54:00,72.8,57.2,30.24,West,276,0.0,3.0,58,0.00,,CLR,0.00,VWS V14.01,2013-01-26 16:54:00,
2013-01-26 11:59:00,72.7,57.6,30.23,ENE,62,1.0,3.0,59,0.00,,CLR,0.00,VWS V14.01,2013-01-26 16:59:00,
2013-01-26 12:04:00,73.1,57.9,30.23,WNW,288,1.0,1.0,59,0.00,,CLR,0.00,VWS V14.01,2013-01-26 17:04:00,
2013-01-26 12:10:00,73.4,57.7,30.23,East,84,2.0,2.0,58,0.00,,CLR,0.00,VWS V14.01,2013-01-26 17:10:00,
2013-01-26 12:15:00,74.1,56.4,30.23,WNW,287,1.0,2.0,54,0.00,,CLR,0.00,VWS V14.01,2013-01-26 17:15:00,
2013-01-26 12:20:00,74.4,57.2,30.23,West,269,1.0,2.0,55,0.00,,CLR,0.00,VWS V14.01,2013-01-26 17:20:00,
2013-01-26 12:25:00,74.7,55.4,30.22,WNW,293,2.0,4.0,51,0.00,,CLR,0.00,VWS V14.01,2013-01-26 17:25:00,
2013-01-26 12:30:00,74.8,57.1,30.22,NW,314,0.0,4.0,54,0.00,,CLR,0.00,VWS V14.01,2013-01-26 17:30:00,
2013-01-26 12:35:00,75.0,55.7,30.22,West,270,0.0,1.0,51,0.00,,CLR,0.00,VWS V14.01,2013-01-26 17:35:00,
2013-01-26 12:40:00,74.8,54.4,30.22,North,358,0.0,6.0,49,0.00,,CLR,0.00,VWS V14.01,2013-01-26 17:40:00,
2013-01-26 12:46:00,74.4,54.0,30.21,WNW,300,0.0,6.0,49,0.00,,CLR,0.00,VWS V14.01,2013-01-26 17:46:00,
2013-01-26 12:51:00,74.7,54.3,30.21,West,262,0.0,6.0,49,0.00,,CLR,0.00,VWS V14.01,2013-01-26 17:51:00,
2013-01-26 12:56:00,75.0,55.7,30.20,ENE,75,0.0,6.0,51,0.00,,CLR,0.00,VWS V14.01,2013-01-26 17:56:00,
2013-01-26 13:01:00,76.1,56.7,30.20,WNW,284,0.0,6.0,51,0.00,,CLR,0.00,VWS V14.01,2013-01-26 18:01:00,
2013-01-26 13:06:00,76.3,55.2,30.20,NNE,18,1.0,4.0,48,0.00,,CLR,0.00,VWS V14.01,2013-01-26 18:06:00,
2013-01-26 13:11:00,76.2,54.5,30.19,WNW,284,1.0,4.0,47,0.00,,CLR,0.00,VWS V14.01,2013-01-26 18:11:00,
2013-01-26 13:16:00,76.3,53.4,30.19,WNW,291,4.0,4.0,45,0.00,,CLR,0.00,VWS V14.01,2013-01-26 18:16:00,
2013-01-26 13:21:00,75.5,53.9,30.19,WNW,302,1.0,6.0,47,0.00,,CLR,0.00,VWS V14.01,2013-01-26 18:21:00,
2013-01-26 13:27:00,75.4,54.9,30.18,SE,142,0.0,6.0,49,0.00,,CLR,0.00,VWS V14.01,2013-01-26 18:27:00,
2013-01-26 13:32:00,75.6,54.5,30.18,West,274,1.0,6.0,48,0.00,,CLR,0.00,VWS V14.01,2013-01-26 18:32:00,
2013-01-26 13:37:00,75.1,53.5,30.18,WNW,290,1.0,3.0,47,0.00,,CLR,0.00,VWS V14.01,2013-01-26 18:37:00,
2013-01-26 13:42:00,75.4,54.4,30.18,West,278,0.0,3.0,48,0.00,,CLR,0.00,VWS V14.01,2013-01-26 18:42:00,
2013-01-26 13:47:00,76.0,53.8,30.17,West,276,0.0,3.0,46,0.00,,CLR,0.00,VWS V14.01,2013-01-26 18:47:00,
2013-01-26 13:52:00,76.4,55.3,30.17,North,360,0.0,3.0,48,0.00,,CLR,0.00,VWS V14.01,2013-01-26 18:52:00,
2013-01-26 13:57:00,76.7,54.4,30.17,West,264,1.0,3.0,46,0.00,,CLR,0.00,VWS V14.01,2013-01-26 18:57:00,
2013-01-26 14:02:00,76.3,54.6,30.17,WNW,291,0.0,3.0,47,0.00,,CLR,0.00,VWS V14.01,2013-01-26 19:02:00,
2013-01-26 14:08:00,76.6,56.0,30.16,West,262,0.0,1.0,49,0.00,,CLR,0.00,VWS V14.01,2013-01-26 19:08:00,
2013-01-26 14:13:00,77.0,55.2,30.16,West,277,1.0,3.0,47,0.00,,CLR,0.00,VWS V14.01,2013-01-26 19:13:00,
2013-01-26 14:18:00,77.0,56.4,30.16,West,281,1.0,3.0,49,0.00,,CLR,0.00,VWS V14.01,2013-01-26 19:18:00,
2013-01-26 14:23:00,77.3,56.7,30.16,WSW,245,0.0,3.0,49,0.00,,CLR,0.00,VWS V14.01,2013-01-26 19:23:00,
2013-01-26 14:28:00,77.4,56.2,30.16,West,271,2.0,3.0,48,0.00,,CLR,0.00,VWS V14.01,2013-01-26 19:28:00,
2013-01-26 14:33:00,77.2,56.0,30.16,WNW,293,0.0,3.0,48,0.00,,CLR,0.00,VWS V14.01,2013-01-26 19:33:00,
2013-01-26 14:38:00,77.1,56.5,30.16,West,276,0.0,1.0,49,0.00,,CLR,0.00,VWS V14.01,2013-01-26 19:38:00,
2013-01-26 14:44:00,77.4,56.8,30.15,West,272,0.0,3.0,49,0.00,,CLR,0.00,VWS V14.01,2013-01-26 19:44:00,
2013-01-26 14:49:00,76.9,55.7,30.15,West,273,0.0,3.0,48,0.00,,CLR,0.00,VWS V14.01,2013-01-26 19:49:00,
2013-01-26 14:54:00,76.7,56.7,30.15,WSW,251,2.0,3.0,50,0.00,,CLR,0.00,VWS V14.01,2013-01-26 19:54:00,
2013-01-26 14:59:00,77.0,56.4,30.15,WNW,291,0.0,3.0,49,0.00,,CLR,0.00,VWS V14.01,2013-01-26 19:59:00,
2013-01-26 15:04:00,77.5,56.3,30.15,SW,219,0.0,3.0,48,0.00,,CLR,0.00,VWS V14.01,2013-01-26 20:04:00,
2013-01-26 15:09:00,78.0,56.7,30.15,SE,133,0.0,1.0,48,0.00,,CLR,0.00,VWS V14.01,2013-01-26 20:09:00,
2013-01-26 15:14:00,78.3,57.0,30.15,West,263,0.0,2.0,48,0.00,,CLR,0.00,VWS V14.01,2013-01-26 20:14:00,
2013-01-26 15:19:00,78.0,56.7,30.15,NNE,16,0.0,2.0,48,0.00,,CLR,0.00,VWS V14.01,2013-01-26 20:19:00,
2013-01-26 15:25:00,77.4,56.8,30.15,West,273,0.0,4.0,49,0.00,,CLR,0.00,VWS V14.01,2013-01-26 20:25:00,
2013-01-26 15:30:00,76.9,55.7,30.15,WSW,253,3.0,4.0,48,0.00,,CLR,0.00,VWS V14.01,2013-01-26 20:30:00,
2013-01-26 15:35:00,76.4,56.4,30.15,ESE,104,0.0,0.0,50,0.00,,CLR,0.00,VWS V14.01,2013-01-26 20:35:00,
2013-01-26 15:40:00,76.8,56.2,30.15,SE,139,0.0,2.0,49,0.00,,CLR,0.00,VWS V14.01,2013-01-26 20:40:00,
2013-01-26 15:45:00,76.7,57.2,30.15,WSW,248,0.0,2.0,51,0.00,,CLR,0.00,VWS V14.01,2013-01-26 20:45:00,
2013-01-26 15:50:00,76.2,55.7,30.15,WNW,283,1.0,5.0,49,0.00,,CLR,0.00,VWS V14.01,2013-01-26 20:50:00,
2013-01-26 15:55:00,75.4,56.0,30.15,West,273,2.0,5.0,51,0.00,,CLR,0.00,VWS V14.01,2013-01-26 20:55:00,
2013-01-26 16:00:00,74.8,55.5,30.15,WNW,285,0.0,5.0,51,0.00,,CLR,0.00,VWS V14.01,2013-01-26 21:00:00,
2013-01-26 16:06:00,74.6,55.8,30.15,West,273,0.0,1.0,52,0.00,,CLR,0.00,VWS V14.01,2013-01-26 21:06:00,
2013-01-26 16:11:00,74.5,55.7,30.14,WNW,284,0.0,2.0,52,0.00,,CLR,0.00,VWS V14.01,2013-01-26 21:11:00,
2013-01-26 16:16:00,74.4,55.7,30.14,NNW,341,0.0,2.0,52,0.00,,CLR,0.00,VWS V14.01,2013-01-26 21:16:00,
2013-01-26 16:21:00,74.5,55.7,30.14,NNW,341,0.0,2.0,52,0.00,,CLR,0.00,VWS V14.01,2013-01-26 21:21:00,
2013-01-26 16:26:00,74.5,56.3,30.14,West,280,0.0,2.0,53,0.00,,CLR,0.00,VWS V14.01,2013-01-26 21:26:00,
2013-01-26 16:31:00,74.5,55.7,30.14,East,79,0.0,2.0,52,0.00,,CLR,0.00,VWS V14.01,2013-01-26 21:31:00,
2013-01-26 16:36:00,74.5,56.3,30.14,ESE,106,0.0,1.0,53,0.00,,CLR,0.00,VWS V14.01,2013-01-26 21:36:00,
2013-01-26 16:42:00,74.4,55.7,30.14,WNW,287,0.0,1.0,52,0.00,,CLR,0.00,VWS V14.01,2013-01-26 21:42:00,
2013-01-26 16:47:00,74.2,56.5,30.14,WSW,257,0.0,1.0,54,0.00,,CLR,0.00,VWS V14.01,2013-01-26 21:47:00,
2013-01-26 16:52:00,74.0,56.3,30.14,WSW,248,0.0,1.0,54,0.00,,CLR,0.00,VWS V14.01,2013-01-26 21:52:00,
2013-01-26 16:57:00,73.8,55.6,30.14,NE,56,0.0,1.0,53,0.00,,CLR,0.00,VWS V14.01,2013-01-26 21:57:00,
2013-01-26 17:02:00,73.6,56.0,30.14,NE,55,0.0,1.0,54,0.00,,CLR,0.00,VWS V14.01,2013-01-26 22:02:00,
2013-01-26 17:07:00,73.4,56.3,30.14,SSW,212,0.0,0.0,55,0.00,,CLR,0.00,VWS V14.01,2013-01-26 22:07:00,
2013-01-26 17:13:00,73.1,56.0,30.14,West,263,0.0,1.0,55,0.00,,CLR,0.00,VWS V14.01,2013-01-26 22:13:00,
2013-01-26 17:18:00,72.9,55.8,30.15,West,263,0.0,1.0,55,0.00,,CLR,0.00,VWS V14.01,2013-01-26 22:18:00,
2013-01-26 17:23:00,72.6,55.5,30.14,East,85,0.0,1.0,55,0.00,,CLR,0.00,VWS V14.01,2013-01-26 22:23:00,
2013-01-26 17:28:00,72.3,55.7,30.15,WNW,284,0.0,1.0,56,0.00,,CLR,0.00,VWS V14.01,2013-01-26 22:28:00,
2013-01-26 17:33:00,71.9,55.9,30.15,WNW,284,0.0,1.0,57,0.00,,CLR,0.00,VWS V14.01,2013-01-26 22:33:00,
2013-01-26 17:38:00,71.4,55.9,30.15,WNW,283,0.0,0.0,58,0.00,,CLR,0.00,VWS V14.01,2013-01-26 22:38:00,
2013-01-26 17:43:00,70.8,55.8,30.15,WNW,284,0.0,0.0,59,0.00,,CLR,0.00,VWS V14.01,2013-01-26 22:43:00,
2013-01-26 17:48:00,70.2,55.2,30.15,WNW,283,0.0,0.0,59,0.00,,CLR,0.00,VWS V14.01,2013-01-26 22:48:00,
2013-01-26 17:53:00,69.6,55.6,30.15,WNW,284,0.0,0.0,61,0.00,,CLR,0.00,VWS V14.01,2013-01-26 22:53:00,
2013-01-26 17:59:00,68.8,55.7,30.16,WNW,283,0.0,0.0,63,0.00,,CLR,0.00,VWS V14.01,2013-01-26 22:59:00,
2013-01-26 18:04:00,68.0,55.4,30.16,WNW,283,0.0,0.0,64,0.00,,CLR,0.00,VWS V14.01,2013-01-26 23:04:00,
2013-01-26 18:09:00,67.2,55.5,30.16,WNW,284,0.0,0.0,66,0.00,,CLR,0.00,VWS V14.01,2013-01-26 23:09:00,
2013-01-26 18:14:00,66.3,55.4,30.16,WNW,284,0.0,0.0,68,0.00,,CLR,0.00,VWS V14.01,2013-01-26 23:14:00,
2013-01-26 18:19:00,65.5,55.1,30.16,WNW,283,0.0,0.0,69,0.00,,CLR,0.00,VWS V14.01,2013-01-26 23:19:00,
2013-01-26 18:24:00,64.8,54.8,30.16,WNW,283,0.0,0.0,70,0.00,,CLR,0.00,VWS V14.01,2013-01-26 23:24:00,
2013-01-26 18:29:00,64.2,55.0,30.17,WNW,284,0.0,0.0,72,0.00,,CLR,0.00,VWS V14.01,2013-01-26 23:29:00,
2013-01-26 18:34:00,63.6,54.4,30.17,WNW,284,0.0,0.0,72,0.00,,CLR,0.00,VWS V14.01,2013-01-26 23:34:00,
2013-01-26 18:40:00,63.0,54.6,30.17,WNW,284,0.0,0.0,74,0.00,,CLR,0.00,VWS V14.01,2013-01-26 23:40:00,
2013-01-26 18:45:00,62.5,54.5,30.17,WNW,283,0.0,0.0,75,0.00,,CLR,0.00,VWS V14.01,2013-01-26 23:45:00,
2013-01-26 18:50:00,62.0,54.4,30.17,WNW,283,0.0,0.0,76,0.00,,CLR,0.00,VWS V14.01,2013-01-26 23:50:00,
2013-01-26 18:55:00,61.5,54.2,30.17,WNW,283,0.0,0.0,77,0.00,,CLR,0.00,VWS V14.01,2013-01-26 23:55:00,
2013-01-26 19:00:00,61.1,54.2,30.17,WNW,284,0.0,0.0,78,0.00,,CLR,0.00,VWS V14.01,2013-01-27 00:00:00,
2013-01-26 19:05:00,60.7,54.2,30.17,WNW,283,0.0,0.0,79,0.00,,CLR,0.00,VWS V14.01,2013-01-27 00:05:00,
2013-01-26 19:10:00,60.4,54.2,30.17,WNW,284,0.0,0.0,80,0.00,,CLR,0.00,VWS V14.01,2013-01-27 00:10:00,
2013-01-26 19:15:00,60.1,54.3,30.17,WNW,284,0.0,0.0,81,0.00,,CLR,0.00,VWS V14.01,2013-01-27 00:15:00,
2013-01-26 19:20:00,59.8,54.0,30.17,WNW,283,0.0,0.0,81,0.00,,CLR,0.00,VWS V14.01,2013-01-27 00:20:00,
2013-01-26 19:26:00,59.5,54.3,30.17,WNW,284,0.0,0.0,83,0.00,,CLR,0.00,VWS V14.01,2013-01-27 00:26:00,
2013-01-26 19:31:00,59.2,54.0,30.18,WNW,283,0.0,0.0,83,0.00,,CLR,0.00,VWS V14.01,2013-01-27 00:31:00,
2013-01-26 19:36:00,58.9,54.1,30.18,WNW,284,0.0,0.0,84,0.00,,CLR,0.00,VWS V14.01,2013-01-27 00:36:00,
2013-01-26 19:41:00,58.6,53.8,30.18,WNW,284,0.0,0.0,84,0.00,,CLR,0.00,VWS V14.01,2013-01-27 00:41:00,
2013-01-26 19:46:00,58.3,53.8,30.18,WNW,283,0.0,0.0,85,0.00,,CLR,0.00,VWS V14.01,2013-01-27 00:46:00,
2013-01-26 19:51:00,58.0,53.8,30.18,WNW,283,0.0,0.0,86,0.00,,CLR,0.00,VWS V14.01,2013-01-27 00:51:00,
2013-01-26 19:56:00,58.0,54.5,30.18,WNW,283,0.0,0.0,88,0.00,,CLR,0.00,VWS V14.01,2013-01-27 00:56:00,
2013-01-26 20:01:00,57.9,54.4,30.18,WNW,283,0.0,0.0,88,0.00,,CLR,0.00,VWS V14.01,2013-01-27 01:01:00,
2013-01-26 20:06:00,58.2,55.0,30.18,WNW,284,0.0,0.0,89,0.00,,CLR,0.00,VWS V14.01,2013-01-27 01:06:00,
2013-01-26 20:12:00,58.7,55.5,30.18,SW,218,0.0,1.0,89,0.00,,CLR,0.00,VWS V14.01,2013-01-27 01:12:00,
2013-01-26 20:17:00,59.1,55.5,30.18,SW,219,0.0,1.0,88,0.00,,CLR,0.00,VWS V14.01,2013-01-27 01:17:00,
2013-01-26 20:22:00,59.6,55.7,30.18,SE,136,0.0,1.0,87,0.00,,CLR,0.00,VWS V14.01,2013-01-27 01:22:00,
2013-01-26 20:27:00,59.9,56.0,30.18,SE,136,0.0,1.0,87,0.00,,CLR,0.00,VWS V14.01,2013-01-27 01:27:00,
2013-01-26 20:32:00,59.9,55.7,30.18,SW,223,0.0,1.0,86,0.00,,CLR,0.00,VWS V14.01,2013-01-27 01:32:00,
2013-01-26 20:37:00,59.7,55.5,30.18,SW,223,0.0,0.0,86,0.00,,CLR,0.00,VWS V14.01,2013-01-27 01:37:00,
2013-01-26 20:42:00,59.4,55.5,30.18,SW,223,0.0,0.0,87,0.00,,CLR,0.00,VWS V14.01,2013-01-27 01:42:00,
2013-01-26 20:47:00,59.2,55.3,30.18,SW,224,0.0,0.0,87,0.00,,CLR,0.00,VWS V14.01,2013-01-27 01:47:00,
2013-01-26 20:53:00,58.9,55.0,30.19,SW,224,0.0,0.0,87,0.00,,CLR,0.00,VWS V14.01,2013-01-27 01:53:00,
2013-01-26 20:58:00,58.6,55.1,30.19,SW,224,0.0,0.0,88,0.00,,CLR,0.00,VWS V14.01,2013-01-27 01:58:00,
2013-01-26 21:03:00,58.2,54.7,30.19,SW,224,0.0,0.0,88,0.00,,CLR,0.00,VWS V14.01,2013-01-27 02:03:00,
2013-01-26 21:08:00,57.9,54.7,30.19,SW,224,0.0,0.0,89,0.00,,CLR,0.00,VWS V14.01,2013-01-27 02:08:00,
2013-01-26 21:13:00,57.6,54.7,30.19,SW,223,0.0,0.0,90,0.00,,CLR,0.00,VWS V14.01,2013-01-27 02:13:00,
2013-01-26 21:18:00,57.3,54.4,30.19,SW,224,0.0,0.0,90,0.00,,CLR,0.00,VWS V14.01,2013-01-27 02:18:00,
2013-01-26 21:23:00,57.1,54.5,30.19,SW,223,0.0,0.0,91,0.00,,CLR,0.00,VWS V14.01,2013-01-27 02:23:00,
2013-01-26 21:28:00,56.9,54.3,30.20,SW,224,0.0,0.0,91,0.00,,CLR,0.00,VWS V14.01,2013-01-27 02:28:00,
2013-01-26 21:33:00,56.7,54.4,30.20,SW,224,0.0,0.0,92,0.00,,CLR,0.00,VWS V14.01,2013-01-27 02:33:00,
2013-01-26 21:38:00,56.5,54.2,30.20,SW,224,0.0,0.0,92,0.00,,CLR,0.00,VWS V14.01,2013-01-27 02:38:00,
2013-01-26 21:44:00,56.4,54.4,30.20,SW,224,0.0,0.0,93,0.00,,CLR,0.00,VWS V14.01,2013-01-27 02:44:00,
2013-01-26 21:49:00,56.3,54.3,30.20,SW,224,0.0,0.0,93,0.00,,CLR,0.00,VWS V14.01,2013-01-27 02:49:00,
2013-01-26 21:54:00,56.3,54.3,30.19,SW,224,0.0,0.0,93,0.00,,CLR,0.00,VWS V14.01,2013-01-27 02:54:00,
2013-01-26 21:59:00,56.2,54.5,30.20,SW,224,0.0,0.0,94,0.00,,CLR,0.00,VWS V14.01,2013-01-27 02:59:00,
2013-01-26 22:04:00,56.1,54.4,30.20,SW,224,0.0,0.0,94,0.00,,CLR,0.00,VWS V14.01,2013-01-27 03:04:00,
2013-01-26 22:09:00,56.0,54.3,30.20,SW,224,0.0,0.0,94,0.00,,CLR,0.00,VWS V14.01,2013-01-27 03:09:00,
2013-01-26 22:14:00,55.9,54.2,30.21,SW,224,0.0,0.0,94,0.00,,CLR,0.00,VWS V14.01,2013-01-27 03:14:00,
2013-01-26 22:19:00,55.7,54.0,30.21,SW,224,0.0,0.0,94,0.00,,CLR,0.00,VWS V14.01,2013-01-27 03:19:00,
2013-01-26 22:24:00,55.5,53.8,30.21,SW,224,0.0,0.0,94,0.00,,CLR,0.00,VWS V14.01,2013-01-27 03:24:00,
2013-01-26 22:30:00,55.3,53.9,30.21,SW,224,0.0,0.0,95,0.00,,CLR,0.00,VWS V14.01,2013-01-27 03:30:00,
2013-01-26 22:35:00,55.1,53.7,30.22,SW,224,0.0,0.0,95,0.00,,CLR,0.00,VWS V14.01,2013-01-27 03:35:00,
2013-01-26 22:40:00,54.8,53.1,30.22,SW,224,0.0,0.0,94,0.00,,CLR,0.00,VWS V14.01,2013-01-27 03:40:00,
2013-01-26 22:45:00,54.6,53.2,30.22,SW,224,0.0,0.0,95,0.00,,CLR,0.00,VWS V14.01,2013-01-27 03:45:00,
2013-01-26 22:50:00,54.5,53.1,30.22,SW,224,0.0,0.0,95,0.00,,CLR,0.00,VWS V14.01,2013-01-27 03:50:00,
2013-01-26 22:55:00,54.3,52.9,30.22,SW,224,0.0,0.0,95,0.00,,CLR,0.00,VWS V14.01,2013-01-27 03:55:00,
2013-01-26 23:00:00,54.3,52.9,30.22,SW,224,0.0,0.0,95,0.00,,CLR,0.00,VWS V14.01,2013-01-27 04:00:00,
2013-01-26 23:05:00,54.0,52.6,30.22,SW,224,0.0,0.0,95,0.00,,CLR,0.00,VWS V14.01,2013-01-27 04:05:00,
2013-01-26 23:10:00,53.8,52.4,30.22,SW,224,0.0,0.0,95,0.00,,CLR,0.00,VWS V14.01,2013-01-27 04:10:00,
2013-01-26 23:15:00,53.7,52.3,30.22,SW,224,0.0,0.0,95,0.00,,CLR,0.00,VWS V14.01,2013-01-27 04:15:00,
2013-01-26 23:21:00,53.7,52.6,30.22,SW,224,0.0,0.0,96,0.00,,CLR,0.00,VWS V14.01,2013-01-27 04:21:00,
2013-01-26 23:26:00,53.5,52.4,30.22,SW,224,0.0,0.0,96,0.00,,CLR,0.00,VWS V14.01,2013-01-27 04:26:00,
2013-01-26 23:31:00,53.3,52.2,30.22,SW,223,0.0,0.0,96,0.00,,CLR,0.00,VWS V14.01,2013-01-27 04:31:00,
2013-01-26 23:36:00,53.2,52.1,30.22,SW,224,0.0,0.0,96,0.00,,CLR,0.00,VWS V14.01,2013-01-27 04:36:00,
2013-01-26 23:41:00,53.2,52.1,30.22,SW,224,0.0,0.0,96,0.00,,CLR,0.00,VWS V14.01,2013-01-27 04:41:00,
2013-01-26 23:46:00,53.3,52.5,30.22,SW,224,0.0,0.0,97,0.00,,CLR,0.00,VWS V14.01,2013-01-27 04:46:00,
2013-01-26 23:51:00,53.3,52.2,30.22,SW,223,0.0,0.0,96,0.00,,CLR,0.00,VWS V14.01,2013-01-27 04:51:00,
2013-01-26 23:57:00,53.2,52.1,30.22,SW,223,0.0,0.0,96,0.00,,CLR,0.00,VWS V14.01,2013-01-27 04:57:00,